Taurus 1
1 44530U 19059C   25148.84856807  .00006337  00000-0  11724-2 0  9992
2 44530  98.6064 287.6864 0010362  79.0501 281.1866 14.65694230302227
Duchifat 3
1 44854U 19089C   25148.16049051  .00045243  00000-0  91560-3 0  9990
2 44854  36.9442  74.0988 0004258 241.7147 118.3180 15.45450674301092
TO-108
1 44881U 19093C   25148.84018549  .00000878  00000-0  10766-3 0  9992
2 44881  97.7927 224.7352 0012317 270.0656  89.9148 14.85575387294336
FloripaSat 1
1 44885U 19093G   25148.79485458  .00006157  00000-0  52139-3 0  9993
2 44885  97.8172 236.3706 0008770 236.1324 123.9064 14.98338797294981
RS-44
1 44909U 19096E   25148.51419901  .00000033  00000-0  93263-4 0  9994
2 44909  82.5225 235.2933 0216701 324.0450  34.6231 12.79740652253141
UPMSat 2
1 46276U 20061E   25148.81556637  .00061907  00000-0  57961-3 0  9999
2 46276  97.2447 222.8153 0001781 164.4916 195.6400 15.67051156263622
SALSAT
1 46495U 20068K   25148.58989966  .00006573  00000-0  28597-3 0  9999
2 46495  97.8600 126.0670 0010793 194.9203 165.1716 15.22567136256705
CubeSX-Sirius-HSE
1 47951U 21022V   25148.87174344  .00718537  23702-3  14535-2 0  9999
2 47951  97.4127  62.3372 0005494 153.8088 206.3469 15.99604423231993
CubeSX-HSE
1 47952U 21022W   25148.88168103  .00715267  23551-3  14280-2 0  9993
2 47952  97.4128  62.6225 0006276 160.2065 199.9458 15.99827619232014
GRBAlpha
1 47959U 21022AD  25148.82562834  .00587360  14793-3  13942-2 0  9996
2 47959  97.4108  62.5938 0005088 152.2478 207.9071 15.96698269230820
TUBIN
1 48900U 21059X   25148.85747264  .00042747  00000-0  53990-3 0  9994
2 48900  97.6744 317.1406 0002741 256.7700 103.3249 15.59443921218212
LEDSAT
1 49069U 21073D   25148.76003532  .00068980  00000-0  87739-3 0  9995
2 49069  97.3898 229.8168 0011155 125.2696 234.9605 15.59075163209590
CUTE
1 49263U 21088D   25148.45387258  .00018658  00000-0  37769-3 0  9998
2 49263  97.4513 224.3614 0006503 284.0213  76.0313 15.46461388202551
TeikyoSat 4
1 49396U 21102B   25148.07319764  .00001721  00000-0  11692-3 0  9997
2 49396  97.4107 186.9532 0012770 169.1278 191.0229 15.07582783194662
Z-Sat
1 49399U 21102E   25148.85708018  .00004548  00000-0  25085-3 0  9991
2 49399  97.3803 190.7326 0019371 140.9757 219.2877 15.14299865195201
KOSEN 1
1 49402U 21102H   25148.09867813  .00006076  00000-0  28324-3 0  9998
2 49402  97.3707 193.3178 0017586 120.5981 239.6991 15.20104065195399
HO-113
1 50466U 21131B   25148.88567841  .00000550  00000-0  18549-3 0  9996
2 50466  98.5098 238.2962 0004713 156.7421 203.3981 14.40798797179767
IRIS-A
1 51044U 22002BN  25148.48811442  .00738231  27235-3  11124-2 0  9999
2 51044  97.3125 229.1520 0008279 233.6218 126.4300 16.04631281187975
Foresail-1
1 52766U 22057AL  25148.49088111  .00273525  29602-4  91054-3 0  9993
2 52766  97.6028 299.0757 0006116 258.8655 101.1930 15.90223193167972
SNUGLITE 2
1 52899U 22065F   25148.79643503  .00001065  00000-0  21610-3 0  9990
2 52899  98.1674 290.8859 0008468 143.2866 216.8918 14.63182467154767
UmKA 1 (RS40S)
1 57172U 23091G   25148.85251684  .00005503  00000-0  29573-3 0  9998
2 57172  97.5583 204.2963 0014736  21.8898 338.2960 15.15216280105709
CubeBel-2 (EU11S)
1 57175U 23091K   25148.84664647  .00010378  00000-0  49700-3 0  9997
2 57175  97.5581 205.3662 0012643  31.3180 328.8805 15.19068597105773
VERONIKA
1 58261U 23174F   25148.84871941  .00125657  00000-0  11664-2 0  9997
2 58261  97.4130 234.3468 0004103 124.6555 235.5093 15.67042530 86840
ENSO
1 58470U 23185J   25148.86286163  .00051857  00000-0  78394-3 0  9993
2 58470  97.3741 223.6165 0008622 127.9898 232.2136 15.54508673 83211
EIRSAT-1
1 58472U 23185L   25148.88959006  .00103471  00000-0  10451-2 0  9999
2 58472  97.3702 225.3530 0006666 137.7573 222.4201 15.64978720 83332
SONATE-2
1 59112U 24043Q   25148.30891258  .00017447  00000-0  50906-3 0  9993
2 59112  97.5124 279.2451 0012139 153.8301 206.3557 15.35335779 68454
MO-122
1 60209U 24125G   25148.32593790  .00018321  00000-0  52707-3 0  9998
2 60209  97.2799   0.0852 0019225 176.6068 183.5310 15.35649801 50075
GRBBeta
1 60237U 24128C   25148.22492494  .00004387  00000-0  33517-3 0  9995
2 60237  61.9903 122.6314 0051062  54.6528 305.9320 15.02502151 48344
Curium One
1 60242U 24128H   25148.41434480  .00008207  00000-0  57493-3 0  9997
2 60242  61.9803 120.4389 0051109  50.5873 309.9726 15.04886421 48405
ROBUSTA-3A
1 60243U 24128J   25148.08091056  .00006613  00000-0  47292-3 0  9994
2 60243  61.9871 122.3922 0049712  48.1989 312.3333 15.04422463 48340
CatSat
1 60246U 24125J   25148.33259483  .00011302  00000-0  37923-3 0  9993
2 60246  97.2593 359.4438 0044143 136.4567 224.0173 15.30080501 48115
HYPERVIEW-1G (RS66S)
1 61772U 24199AP  25148.87884255  .00019624  00000-0  57837-3 0  9990
2 61772  97.3544  17.7647 0012354 228.4628 131.5556 15.34987990 75166
AO-123
1 61781U 24199AY  25148.85996962  .00006511  00000-0  23896-3 0  9996
2 61781  97.3559  16.7548 0014330 235.6588 124.3296 15.28196417 75094
ZIMSAT 2
1 61783U 24199BA  25148.90406376  .00034331  00000-0  86369-3 0  9994
2 61783  97.3525  18.3177 0012347 224.0747 135.9516 15.39785617 78353
HADES-R (SO-124)
1 62690U 25009CK  25148.17324586  .00036256  00000-0  13156-2 0  9995
2 62690  97.4097 229.0354 0004757 137.1720 222.9890 15.28224609 20250
HYDRA-T
1 62692U 25009CM  25148.16068083  .00037116  00000-0  13373-2 0  9990
2 62692  97.4099 229.0510 0004523 134.1391 226.0221 15.28453705 20254
JINJUSat 1B
1 63210U 25052A   25148.15749372  .00010808  00000-0  49945-3 0  9995
2 63210  97.4436  42.4400 0005019  30.6913 329.4614 15.20346496 11368
NUSHSAT 1
1 63211U 25052B   25147.95671085  .00010787  00000-0  49581-3 0  9990
2 63211  97.4428  42.2408 0005230  36.3155 323.8434 15.20531082 11334
TEVEL2-4
1 63213U 25052D   25148.42864479  .00012625  00000-0  58418-3 0  9998
2 63213  97.4352  42.6016 0004882  50.7916 309.3752 15.20262287 11406
TEVEL2-5
1 63214U 25052E   25147.96834611  .00010643  00000-0  49351-3 0  9996
2 63214  97.4346  42.1478 0004885  52.8237 307.3444 15.20233441 11337
TEVEL2-6
1 63215U 25052F   25148.43090796  .00011925  00000-0  55290-3 0  9991
2 63215  97.4342  42.6003 0004925  52.0222 308.1457 15.20205683 11402
TEVEL2-1
1 63217U 25052H   25148.24277528  .00011736  00000-0  54757-3 0  9999
2 63217  97.4319  42.3701 0005353  61.7126 298.4649 15.19990505 11378
TEVEL2-2
1 63218U 25052J   25148.44056922  .00012234  00000-0  57059-3 0  9997
2 63218  97.4319  42.5648 0005406  60.7918 299.3857 15.19994009 11406
TEVEL2-3
1 63219U 25052K   25148.44065025  .00012148  00000-0  56668-3 0  9991
2 63219  97.4318  42.5645 0005409  60.9097 299.2679 15.19989555 11407
TEVEL2-8
1 63237U 25052AD  25148.43068236  .00011222  00000-0  54162-3 0  9996
2 63237  97.4381  42.4863 0010079  64.2733 295.9541 15.18795822 11391
TEVEL2-9
1 63238U 25052AE  25148.16902461  .00011163  00000-0  53973-3 0  9997
2 63238  97.4388  42.2260 0010146  64.6200 295.6084 15.18735822 11355
TEVEL2-7
1 63239U 25052AF  25147.97303242  .00010281  00000-0  49798-3 0  9998
2 63239  97.4386  42.0284 0010177  65.4159 294.8135 15.18695262 11322
HYDRA-W
1 63490U 25052BL  25148.45576342  .00028552  00000-0  12273-2 0  9991
2 63490  97.4333  42.7109 0014083  61.1088 299.1560 15.22529606 11413
HADES-ICM
1 63492U 25052BN  25147.67861683  .00024473  00000-0  10661-2 0  9998
2 63492  97.4338  41.9204 0014480  66.4735 293.8021 15.22101741 11290
